Wind_Speed
11 11 9 7 6 5 8 2 3 1 20 7 2 11 5 9 13 14 13 13 18 17 15 16 16 19 15 20 13 11 4 2 7 17 20 16 17 20 19 10 13 6 12 15
11 11 9 8 8 9 4 2 2 2 14 7 10 2 11 18 19 18 7 10 10 12 15 14 13 20 21 19 18 6 2 2 5 16 7 3 4 12 18 21 10 15 6 7
12 12 11 9 8 8 7 1 2 3 2 5 11 14 15 13 11 19 19 16 16 18 20 18 14 20 10 17 19 9 4 5 10 11 15 14 16 18 18 15 9 9 14 19
14 13 12 11 11 9 8 2 3 3 2 7 13 12 11 16 15 16 10 14 22 21 22 21 19 18 19 18 16 7 2 8 10 13 18 17 17 19 20 19 23 19 20 19
14 14 14 14 13 10 7 2 2 3 7 6 9 19 19 24 19 17 18 21 21 20 25 16 19 16 16 14 15 8 4 6 7 18 18 18 20 16 14 18 22 20 24 19
16 16 16 16 15 13 7 7 4 3 5 11 11 13 16 18 20 19 25 21 18 20 17 16 19 17 17 14 12 13 4 3 1 15 15 16 15 18 16 14 19 14 15 19
17 17 18 18 19 21 15 7 6 4 13 13 14 16 20 21 19 22 21 18 22 20 14 17 17 13 15 14 19 9 10 6 3 12 11 20 16 14 20 16 15 14 14 17
18 18 19 21 21 23 24 21 9 4 12 14 17 22 25 23 18 19 23 17 16 6 6 9 6 3 5 14 20 20 15 11 7 9 14 17 15 15 10 14 23 15 13 17
20 21 22 23 22 23 26 25 27 9 11 18 16 18 22 16 14 19 24 15 7 7 9 5 8 8 5 6 5 13 17 17 9 10 16 22 21 8 5 8 14 19 10 16
20 21 23 26 28 28 30 25 30 15 12 12 15 11 11 14 12 12 8 3 5 6 9 10 8 10 3 6 5 4 2 3 12 13 12 11 17 21 11 15 14 7 11 13
20 21 23 25 27 29 33 29 33 26 9 15 12 25 24 14 7 12 2 4 4 3 10 4 5 6 8 7 13 6 7 3 5 5 9 14 23 12 15 16 8 6 6 10
20 22 24 26 28 30 30 30 33 40 11 6 16 42 41 35 36 15 6 11 6 2 3 4 3 5 2 7 9 14 15 11 4 9 6 6 4 6 8 6 11 11 8 11
21 23 25 27 28 32 35 32 24 30 12 12 12 19 35 31 46 39 15 14 15 14 9 4 4 5 4 8 14 17 9 15 8 14 21 22 19 19 18 8 14 17 13 8
22 24 26 28 29 35 32 28 29 29 2 4 5 18 23 40 45 44 45 36 16 14 8 8 5 4 5 10 15 6 11 5 15 17 22 20 20 18 21 21 18 9 12 13
23 25 26 28 33 30 29 30 27 35 7 2 2 6 22 21 36 33 34 25 18 9 6 4 4 2 3 3 0 7 5 14 7 11 16 7 13 11 10 12 14 12 15 13
23 25 26 28 27 22 16 0 17 32 21 1 2 3 4 6 21 19 17 13 11 6 3 3 3 4 6 3 5 19 20 18 8 14 19 11 13 13 13 17 18 9 6 8
23 25 28 28 17 6 3 3 2 30 23 3 2 3 2 2 4 3 2 4 1 2 2 3 3 2 2 3 6 28 10 9 9 11 14 13 20 14 13 9 5 6 7 7
22 26 29 17 21 8 4 6 6 27 6 2 2 2 1 0 2 2 2 2 2 1 2 1 3 2 3 5 18 17 13 15 15 20 15 18 22 19 16 15 7 11 10 8
20 25 14 9 8 3 2 3 16 21 4 3 3 4 3 3 2 2 1 1 2 2 3 4 2 2 5 10 11 13 13 10 15 13 15 18 17 18 14 13 14 9 5 1
18 8 2 2 5 6 9 10 5 4 3 3 3 3 3 3 3 3 3 3 3 3 5 1 2 4 13 16 14 14 12 16 15 15 19 18 18 15 9 12 12 9 9 9
2 1 2 1 5 2 1 2 2 3 2 3 3 4 4 3 3 2 3 2 2 2 3 4 3 3 2 4 6 7 7 11 8 10 14 19 11 4 3 8 10 5 8 9
4 4 1 1 1 2 4 4 3 4 5 3 3 2 3 2 2 3 2 3 1 4 4 2 3 3 5 7 7 9 11 12 15 16 17 13 3 6 7 6 6 8 10 16
3 3 3 3 2 4 4 7 3 3 3 3 3 3 3 2 2 1 2 1 4 2 1 3 1 6 9 6 5 8 8 13 14 13 7 9 11 9 13 12 10 17 13 19
3 3 5 4 4 4 4 2 4 3 5 7 5 2 3 2 2 3 2 4 2 3 2 2 3 7 9 10 9 9 10 12 11 10 11 14 15 15 12 14 18 18 14 17
3 3 4 5 2 1 1 1 3 3 6 5 3 3 3 2 2 3 2 1 4 4 1 2 5 9 10 10 11 10 7 7 6 6 10 12 15 15 14 21 25 26 26 25
3 5 2 2 3 1 2 2 3 3 4 3 2 3 3 3 3 3 5 2 4 1 1 3 6 9 8 8 8 7 7 7 8 10 12 14 16 15 16 26 28 28 27 23
3 3 3 3 1 3 2 3 1 1 3 2 3 4 5 3 2 3 2 2 2 3 3 4 7 6 6 6 8 8 8 9 9 12 14 16 24 27 22 19 24 28 29 30
Wind_Direction
223 227 231 218 205 194 173 201 240 32 175 204 174 229 203 240 258 260 276 271 261 270 283 297 296 292 283 316 339 328 48 156 286 282 284 265 261 261 276 272 261 244 241 254
224 224 225 222 210 185 167 219 246 284 185 221 229 250 233 239 252 254 256 262 269 297 291 287 265 277 293 302 311 318 107 56 323 313 327 339 317 344 344 318 259 228 248 258
221 222 222 222 218 203 201 303 222 303 209 245 234 235 240 244 228 249 251 260 277 290 286 279 276 280 292 300 288 302 163 188 232 257 263 281 289 289 298 303 288 292 245 259
219 224 226 225 224 207 182 186 233 253 226 240 238 245 256 240 240 235 233 245 245 256 269 271 280 294 297 303 305 283 356 285 284 284 273 268 276 293 290 275 275 289 299 264
225 231 232 229 220 210 210 191 184 245 260 275 227 235 241 249 245 248 249 248 249 245 253 262 278 280 281 277 296 309 48 301 309 284 285 287 280 272 283 277 268 264 271 275
230 232 237 234 222 207 211 189 242 273 242 242 248 243 239 249 247 248 247 255 258 261 267 258 268 275 279 279 283 282 198 201 312 276 294 300 271 244 251 272 283 279 284 290
232 237 239 235 231 220 217 224 197 232 252 248 252 258 256 250 244 252 254 247 256 267 274 276 278 280 273 270 266 259 267 233 190 272 305 270 263 240 242 258 265 264 266 276
236 240 241 239 237 233 233 234 233 248 256 247 253 249 256 271 275 268 254 254 261 276 282 289 278 280 258 252 248 251 224 242 248 254 260 285 297 260 262 275 279 270 282 295
241 244 242 241 244 247 244 242 233 232 256 240 257 257 248 258 259 268 268 277 302 246 258 244 245 252 251 289 273 224 226 223 212 243 255 261 271 291 288 305 289 284 288 278
247 251 252 251 252 255 247 242 232 231 255 241 239 247 243 245 248 271 295 312 287 246 252 250 243 253 165 217 239 234 209 190 221 236 247 256 252 276 265 245 252 39 354 338
256 262 263 259 259 258 251 245 229 220 242 250 230 232 240 255 241 244 270 353 251 191 231 225 221 232 229 204 233 238 214 197 206 213 235 264 249 268 237 246 301 313 315 298
268 271 269 269 266 264 266 253 238 227 231 253 243 234 236 233 240 255 234 233 237 251 277 225 179 205 181 195 249 232 243 219 200 194 216 240 254 266 260 286 289 289 284 301
276 279 280 277 275 269 268 259 237 210 231 247 243 236 243 241 237 236 241 245 247 254 227 250 265 228 123 222 234 252 256 245 245 263 254 257 262 267 270 287 289 285 292 297
283 286 288 286 284 283 269 240 225 208 126 239 240 227 237 233 229 231 227 243 237 242 244 244 246 233 176 255 256 230 237 136 227 248 259 268 266 257 262 267 264 265 280 282
291 294 293 293 292 275 261 249 235 213 193 244 237 280 238 230 221 228 231 231 236 236 230 218 250 240 191 186 147 265 214 242 231 250 257 220 261 253 243 253 263 273 275 276
296 297 297 297 288 269 243 296 213 211 199 171 266 286 259 281 208 218 220 220 225 220 195 220 221 221 177 214 235 253 254 244 244 259 261 261 261 271 261 257 265 245 222 263
299 299 298 296 221 245 234 195 260 190 169 137 245 267 359 332 70 43 40 176 145 143 221 215 181 211 170 258 256 250 255 261 259 270 280 279 271 265 269 273 227 229 241 277
305 303 296 257 214 263 270 261 217 165 114 184 213 239 295 301 88 93 356 77 37 209 219 183 215 217 202 250 242 265 251 257 256 253 260 253 263 267 265 261 232 230 254 270
307 312 271 173 198 213 166 135 171 167 195 207 188 173 201 146 113 113 112 136 209 167 225 227 151 237 224 247 275 278 279 260 261 268 268 264 257 256 260 263 262 214 185 269
303 314 40 201 208 183 135 157 153 182 255 231 209 115 146 152 154 170 135 192 223 225 229 214 211 250 261 262 272 282 284 278 276 278 278 278 272 260 264 264 255 201 169 148
253 238 232 290 146 123 64 159 172 175 233 222 221 134 142 214 133 165 192 186 224 233 238 161 224 254 299 247 273 269 290 315 316 307 299 281 254 205 272 294 287 184 162 152
283 300 227 229 115 165 168 178 192 202 222 175 136 152 135 162 175 124 241 200 122 253 152 214 250 277 357 358 359 348 333 341 331 316 298 274 148 92 65 45 66 99 99 104
203 225 219 202 157 201 201 177 192 200 156 164 138 99 126 47 62 101 98 163 232 319 108 219 227 344 346 358 350 335 356 349 339 337 28 72 77 80 89 82 73 81 85 98
235 208 212 218 173 227 206 216 179 188 129 132 123 122 130 152 112 169 158 234 332 297 272 235 328 359 18 359 346 348 354 347 346 11 44 69 75 74 71 82 87 91 85 87
242 231 232 203 237 92 274 177 74 80 128 123 96 58 103 175 130 215 216 10 241 207 237 344 12 13 350 336 337 345 358 357 2 29 58 66 74 77 74 76 81 83 86 89
226 224 253 281 101 42 41 71 73 97 122 94 61 139 164 196 176 156 212 210 212 94 52 28 9 2 3 354 7 15 16 34 54 64 71 72 74 77 82 78 77 82 88 83
234 234 202 223 199 147 182 119 191 84 87 138 181 167 194 161 185 204 186 60 73 89 56 38 30 11 21 23 35 36 41 53 61 70 71 75 78 79 79 78 76 74 72 74
Height
775 776 778 780 781 785 788 790 790 781 783 791 788 791 787 787 781 779 778 774 776 776 775 772 770 764 755 743 747 752 752 757 769 751 736 730 728 735 738 748 754 747 740 722
772 774 776 778 780 783 786 788 785 781 784 784 784 782 783 785 785 783 780 776 771 771 774 775 764 758 748 748 749 754 750 773 776 749 733 727 737 741 746 738 728 748 751 731
770 772 774 776 779 781 785 785 787 786 783 776 778 781 779 783 777 779 777 774 776 778 775 768 756 753 750 748 744 745 747 759 771 774 757 751 751 744 746 758 756 743 734 723
767 769 772 774 777 780 784 784 783 779 775 779 775 775 770 770 777 772 771 770 775 778 770 764 763 761 757 750 745 744 750 756 755 752 744 744 736 735 732 733 738 743 720 721
763 766 768 771 775 778 782 781 782 781 771 768 774 770 768 769 767 766 766 766 765 763 759 772 766 760 756 755 749 752 759 766 760 756 744 741 738 731 734 725 724 720 709 700
759 762 764 767 771 775 776 778 779 777 768 770 770 761 759 757 762 758 754 757 759 756 755 756 753 752 749 748 751 752 758 763 765 756 743 738 735 729 718 708 708 705 709 698
755 757 760 762 766 770 772 772 775 776 766 766 760 756 753 750 751 751 747 751 752 749 746 746 746 746 744 743 741 749 752 756 762 751 750 750 710 707 703 702 693 692 690 684
750 752 755 758 761 764 768 770 772 769 758 756 755 756 752 750 744 739 737 740 741 742 744 751 759 761 752 737 731 731 737 745 750 752 745 719 714 699 703 701 686 679 679 670
745 747 750 752 755 757 761 762 766 765 756 743 751 749 745 747 746 741 733 738 737 738 741 752 748 750 740 751 723 711 719 725 739 743 740 732 700 690 682 683 691 665 667 664
738 740 743 745 747 749 753 752 755 756 743 739 746 740 739 739 740 734 735 733 734 734 739 743 740 738 729 732 733 741 726 737 734 729 729 712 689 685 686 700 685 669 663 664
731 733 735 737 738 740 742 738 742 744 732 730 731 733 735 738 733 735 734 738 734 738 734 735 736 736 722 722 710 712 725 736 728 726 719 715 684 685 691 674 671 670 667 668
724 725 726 727 728 729 730 725 727 730 728 717 716 718 718 723 725 729 727 726 724 726 726 721 716 716 724 712 712 696 710 699 714 708 698 676 669 671 669 666 665 664 663 662
716 716 716 716 716 716 716 713 714 716 713 710 710 701 709 710 714 717 722 715 714 717 718 717 715 701 700 701 695 686 689 678 692 685 670 668 665 662 661 660 659 657 657 655
707 706 705 704 703 701 700 698 701 703 708 703 692 691 693 693 696 698 700 696 708 709 712 708 707 695 689 688 683 689 670 673 671 673 664 660 658 655 653 650 648 649 648 646
699 697 695 693 690 687 687 686 686 689 695 691 689 684 680 680 683 687 691 694 699 702 703 703 694 691 690 687 687 688 665 661 673 665 648 657 650 646 644 642 638 640 640 638
690 689 686 683 679 676 675 675 674 680 683 691 683 680 676 671 674 678 681 684 689 691 692 690 684 680 686 683 683 649 651 649 649 648 640 645 641 636 634 631 629 631 633 633
683 680 677 674 672 670 669 670 668 670 678 686 683 679 675 674 674 677 677 679 682 688 690 685 682 682 684 678 667 629 643 642 641 639 636 637 629 630 625 625 623 623 623 623
676 672 667 664 667 667 666 665 666 670 674 680 678 673 677 673 676 679 681 685 687 687 685 685 681 679 676 668 637 635 637 635 634 627 628 626 620 619 615 614 616 617 615 613
670 665 657 660 663 664 662 663 663 669 673 670 670 672 678 673 676 680 682 683 683 682 679 676 675 675 669 640 633 629 628 630 626 621 619 614 611 606 604 604 604 608 610 608
666 663 659 661 658 658 661 664 667 670 664 659 662 662 666 670 673 675 680 681 677 674 671 671 671 661 638 630 628 626 625 621 616 616 610 605 600 597 597 596 593 597 601 607
663 660 658 656 656 657 659 661 662 665 663 657 651 654 667 665 672 671 674 672 674 669 664 667 659 657 634 630 627 624 622 617 614 610 603 596 590 591 591 590 589 591 595 601
661 661 659 656 655 656 654 655 656 655 649 646 652 653 656 660 658 669 670 666 672 661 655 655 652 652 632 628 626 624 622 618 614 606 599 592 587 588 591 594 594 594 597 603
659 658 656 651 651 645 643 645 640 645 642 644 645 652 657 661 663 668 671 673 673 647 664 654 657 642 634 631 628 624 623 622 617 605 596 591 592 594 596 603 605 605 610 613
654 650 644 643 640 637 630 625 629 632 634 638 643 651 655 660 666 666 670 661 653 662 663 655 655 644 643 639 633 628 627 627 624 617 610 605 604 606 608 612 613 616 621 628
649 643 630 633 627 627 625 622 624 626 630 637 645 650 653 656 661 661 655 660 649 660 665 655 652 652 650 646 641 638 634 632 630 625 622 619 618 619 622 624 625 628 633 638
641 636 630 627 628 629 630 629 632 630 633 636 640 649 652 654 649 654 658 648 660 654 658 658 657 656 655 651 648 644 641 638 636 633 631 630 630 632 636 637 639 644 647 650
633 631 627 628 628 630 633 632 635 631 636 640 641 645 640 642 645 642 645 652 655 659 662 662 661 660 657 656 652 650 648 646 644 642 641 641 642 644 647 648 655 657 661 664